Location: Newark
(40.3500°N, 15.2333°E)
Time: 21:45:09
(UTC+00:00)

SR - All Passes

Search period start: 26 January 2020 00:00
Search period end: 05 February 2020 00:00
Orbit: 574 x 882 km, 66.7° (Epoch: 26 January)

Date Brightness Start Highest point End Pass type
(mag) Time Alt. Az. Time Alt. Az. Time Alt. Az.
26 Jan - 05:20:25 10° NNW 05:25:40 42° NE 05:30:30 10° SE visible
26 Jan - 07:03:03 10° NW 07:07:29 26° WSW 07:11:37 10° SSW daylight
26 Jan - 19:49:07 10° S 19:54:14 33° ESE 19:59:29 10° NE night (unlit)
26 Jan - 21:30:44 10° WSW 21:36:15 41° NW 21:41:51 10° NNE night (unlit)
27 Jan - 04:31:10 10° N 04:35:37 24° NE 04:39:47 10° E visible
27 Jan - 06:12:47 10° NW 06:18:07 54° WSW 06:22:57 10° S daylight
27 Jan - 19:01:21 10° SE 19:04:58 17° ESE 19:08:37 10° ENE night (unlit)
27 Jan - 20:40:35 10° SW 20:46:24 74° WNW 20:52:22 10° NNE night (unlit)
27 Jan - 22:26:02 10° WNW 22:29:33 16° NW 22:33:04 10° N night (unlit)
28 Jan - 03:42:23 10° N 03:45:21 14° NE 03:48:12 10° ENE visible
28 Jan - 05:22:59 10° NNW 05:28:31 76° ENE 05:33:31 10° SE visible
28 Jan - 07:07:20 10° WNW 07:09:45 13° WSW 07:12:03 10° SW daylight
28 Jan - 19:51:03 10° SSW 19:56:45 60° ESE 20:02:36 10° NE night (unlit)
28 Jan - 21:34:27 10° WSW 21:39:18 26° NW 21:44:10 10° N night (unlit)
29 Jan - 04:33:30 10° NNW 04:38:41 39° NE 04:43:26 10° ESE visible
29 Jan - 06:16:02 10° NW 06:20:33 28° WSW 06:24:44 10° SSW daylight
29 Jan - 19:02:16 10° S 19:07:18 31° ESE 19:12:28 10° NE night (unlit)
29 Jan - 20:43:42 10° SW 20:49:16 43° NW 20:54:56 10° NNE night (unlit)
29 Jan - 22:32:19 10° NW 22:32:58 10° NNW 22:33:37 10° NNW night (unlit)
30 Jan - 03:44:17 10° N 03:48:36 23° NE 03:52:39 10° E visible
30 Jan - 05:25:49 10° NW 05:31:10 58° WSW 05:36:00 10° SSE visible
30 Jan - 18:14:38 10° SE 18:18:02 16° ESE 18:21:30 10° ENE visible
30 Jan - 19:53:36 10° SSW 19:59:26 78° WNW 20:05:25 10° NNE visible
30 Jan - 21:38:51 10° W 21:42:31 17° NW 21:46:12 10° N night (unlit)
31 Jan - 02:55:35 10° N 02:58:19 14° NE 03:00:56 10° ENE visible
31 Jan - 04:36:03 10° NNW 04:41:32 71° ENE 04:46:30 10° SE visible
31 Jan - 06:20:09 10° WNW 06:22:48 14° WSW 06:25:22 10° SW daylight
31 Jan - 19:04:08 10° S 19:09:49 57° ESE 19:15:38 10° NE visible
31 Jan - 20:47:22 10° WSW 20:52:18 27° NW 20:57:16 10° N night (unlit)
01 Feb - 03:46:35 10° NNW 03:51:41 37° NE 03:56:21 10° ESE visible
01 Feb - 05:29:01 10° NW 05:33:36 30° WSW 05:37:51 10° SSW visible
01 Feb - 18:15:25 10° SSE 18:20:23 30° ESE 18:25:26 10° NE visible
01 Feb - 19:56:40 10° SW 20:02:17 46° NW 20:07:59 10° NNE visible
01 Feb - 21:44:40 10° NW 21:45:55 11° NNW 21:47:11 10° NNW night (unlit)
02 Feb - 02:57:25 10° N 03:01:35 21° NE 03:05:30 10° E visible
02 Feb - 04:38:51 10° NW 04:44:12 62° WSW 04:49:03 10° SSE visible
02 Feb - 17:27:57 10° SE 17:31:07 15° ESE 17:34:19 10° ENE visible
02 Feb - 19:06:37 10° SSW 19:12:29 83° WNW 19:18:27 10° NNE visible
02 Feb - 20:51:41 10° W 20:55:30 17° NW 20:59:19 10° N visible
03 Feb - 02:08:49 10° N 02:11:15 13° NE 02:13:38 10° ENE visible
03 Feb - 03:49:07 10° NNW 03:54:33 67° ENE 03:59:29 10° SE visible
03 Feb - 05:33:00 10° WNW 05:35:52 15° WSW 05:38:38 10° SW visible
03 Feb - 18:17:13 10° S 18:22:52 54° ESE 18:28:38 10° NE visible
03 Feb - 20:00:17 10° WSW 20:05:18 28° NW 20:10:21 10° N visible
04 Feb - 02:59:40 10° NNW 03:04:40 35° NE 03:09:16 10° ESE visible
04 Feb - 04:42:00 10° NW 04:46:39 31° WSW 04:50:57 10° S visible
04 Feb - 17:28:34 10° SSE 17:33:26 28° ESE 17:38:23 10° NE visible
04 Feb - 19:09:38 10° SW 19:15:18 48° NW 19:21:03 10° NNE visible
04 Feb - 20:57:14 10° NW 20:58:52 11° NW 21:00:32 10° NNW visible
